Retour au catalogue

TITAN 34D TRANSTAGE DEB

ActifGTO
NORAD 23130·DEBRIS·🇺🇸 United States

Lancé Sep 2, 1988 depuis Cape Canaveral Space Force Station

Loading…

TLE

PériméSource: Space-Track

Époque: Sep 6, 2026, 17:13 UTC

1 23130U 88077M   26249.71761735 -.00000062  00000-0  16379-1 0  9995
2 23130  27.4169  49.9386 7284079 110.7685 336.5303  2.00693268 52673

Suivez TITAN 34D TRANSTAGE DEB en temps réel avec AllMySat

Download on the App Store